DCCHB EDRY-EDLV

Flight info

Callsign DCCHB
Flight time N/A
Altitude 30000
Route DCT DONAB/N0439F300 IFR Y180 RUDOT Q760 INLAR T853 LMA LMA1W
Aircraft LJ35/M-SGHRWXY/SB1

Departure

Time 2026-05-04 19:24
Airport Speyer Airfield (EDRY)

Arrival

Time N/A
Airport Weeze (Niederrhein) Airport (EDLV)
Time Latitude Longitude Altitude Speed Heading
2026-05-04 19:17 49.30310 8.45422 331 ft 0 kts 257°
2026-05-04 19:20 49.30299 8.45387 331 ft 8 kts 213°
2026-05-04 19:21 49.30237 8.45397 331 ft 11 kts 163°
2026-05-04 19:21 49.30155 8.45431 330 ft 14 kts 165°
2026-05-04 19:21 49.30062 8.45468 331 ft 14 kts 165°
2026-05-04 19:21 49.29976 8.45502 331 ft 12 kts 166°
2026-05-04 19:22 49.29893 8.45538 331 ft 10 kts 166°
2026-05-04 19:22 49.29821 8.45565 331 ft 12 kts 166°
2026-05-04 19:22 49.29732 8.45601 328 ft 13 kts 165°
2026-05-04 19:22 49.29674 8.45624 330 ft 9 kts 164°
2026-05-04 19:23 49.29622 8.45645 330 ft 4 kts 175°
2026-05-04 19:23 49.29596 8.45616 329 ft 6 kts 264°
2026-05-04 19:23 49.29586 8.45547 329 ft 7 kts 261°
2026-05-04 19:23 49.29680 8.45499 330 ft 46 kts 345°
2026-05-04 19:24 49.30352 8.45226 337 ft 150 kts 344°
2026-05-04 19:24 49.31373 8.44798 904 ft 156 kts 344°
2026-05-04 19:24 49.32375 8.44143 1483 ft 154 kts 331°
2026-05-04 19:24 49.33302 8.43362 2002 ft 154 kts 332°
2026-05-04 19:25 49.34259 8.42576 2422 ft 158 kts 332°
2026-05-04 19:25 49.35231 8.41778 2845 ft 159 kts 332°
2026-05-04 19:25 49.36208 8.40977 3252 ft 159 kts 332°
2026-05-04 19:25 49.37212 8.40149 3679 ft 166 kts 331°
2026-05-04 19:26 49.38238 8.39307 4110 ft 168 kts 331°
2026-05-04 19:26 49.39274 8.38457 4534 ft 170 kts 330°
2026-05-04 19:26 49.40351 8.37570 4904 ft 181 kts 330°
2026-05-04 19:26 49.41481 8.36643 5271 ft 188 kts 330°
2026-05-04 19:27 49.42653 8.35679 5648 ft 193 kts 329°
2026-05-04 19:27 49.43830 8.34713 6037 ft 191 kts 329°
2026-05-04 19:27 49.45009 8.33742 6398 ft 193 kts 328°
2026-05-04 19:27 49.46192 8.32767 6741 ft 193 kts 328°
2026-05-04 19:28 49.47363 8.31804 7060 ft 189 kts 328°
2026-05-04 19:28 49.48533 8.30840 7371 ft 193 kts 327°
2026-05-04 19:28 49.49704 8.29867 7696 ft 190 kts 329°
2026-05-04 19:28 49.50868 8.28910 7989 ft 190 kts 328°
2026-05-04 19:29 49.52028 8.27932 8293 ft 191 kts 327°
2026-05-04 19:29 49.53212 8.26955 8614 ft 194 kts 329°
2026-05-04 19:29 49.54405 8.25971 8952 ft 198 kts 327°
2026-05-04 19:29 49.55435 8.24409 9001 ft 221 kts 293°
2026-05-04 19:30 49.55817 8.22091 9008 ft 231 kts 274°
2026-05-04 19:30 49.56013 8.19588 8999 ft 239 kts 268°
2026-05-04 19:30 49.55837 8.17021 9004 ft 243 kts 255°
2026-05-04 19:30 49.55096 8.14724 8998 ft 243 kts 230°
2026-05-04 19:31 49.53885 8.12911 8991 ft 244 kts 213°
2026-05-04 19:31 49.52287 8.12121 8989 ft 242 kts 184°
2026-05-04 19:31 49.50675 8.12695 8987 ft 240 kts 154°
2026-05-04 19:31 49.49472 8.14483 8981 ft 244 kts 124°
2026-05-04 19:32 49.49006 8.16953 8977 ft 249 kts 95°
2026-05-04 19:32 49.49428 8.19575 9238 ft 258 kts 63°
2026-05-04 19:32 49.50649 8.21548 9572 ft 263 kts 32°
2026-05-04 19:32 49.52383 8.22407 9927 ft 262 kts
2026-05-04 19:33 49.54182 8.21926 9976 ft 269 kts 333°
2026-05-04 19:33 49.55854 8.20511 9991 ft 282 kts 334°
2026-05-04 19:33 49.57713 8.19382 9995 ft 292 kts 335°
2026-05-04 19:33 49.59630 8.18072 9989 ft 306 kts 332°
2026-05-04 19:34 49.61605 8.16678 10389 ft 328 kts 334°
2026-05-04 19:34 49.63810 8.15231 11097 ft 359 kts 335°
2026-05-04 19:34 49.65380 8.14205 11623 ft 377 kts 334°
2026-05-04 19:34 49.68585 8.12035 12940 ft 393 kts 334°
2026-05-04 19:35 49.71101 8.10324 14250 ft 399 kts 334°
2026-05-04 19:35 49.73678 8.08599 15338 ft 406 kts 334°
2026-05-04 19:35 49.76277 8.06803 16427 ft 412 kts 330°
2026-05-04 19:35 49.78664 8.04349 17487 ft 414 kts 318°
2026-05-04 19:36 49.80730 8.01228 18486 ft 416 kts 307°
2026-05-04 19:36 49.82386 7.97534 19358 ft 418 kts 296°
2026-05-04 19:36 49.83220 7.94845 19916 ft 419 kts 289°
2026-05-04 19:36 49.84287 7.89091 21002 ft 423 kts 280°
2026-05-04 19:37 49.84750 7.86080 21520 ft 427 kts 280°
2026-05-04 19:37 49.85687 7.80116 22532 ft 433 kts 281°
2026-05-04 19:37 49.86168 7.77047 23000 ft 437 kts 280°
2026-05-04 19:37 49.87129 7.70942 23971 ft 441 kts 281°
2026-05-04 19:38 49.87850 7.66368 24861 ft 434 kts 280°
2026-05-04 19:38 49.88312 7.63380 25366 ft 434 kts 279°
2026-05-04 19:38 49.88990 7.58900 26078 ft 432 kts 279°
2026-05-04 19:38 49.89690 7.54306 26892 ft 432 kts 280°
2026-05-04 19:39 49.90386 7.49793 27725 ft 430 kts 280°
2026-05-04 19:39 49.91092 7.45257 28289 ft 435 kts 279°
2026-05-04 19:39 49.91792 7.40686 28920 ft 436 kts 279°
2026-05-04 19:39 49.92486 7.36101 29548 ft 437 kts 279°
2026-05-04 19:40 49.93180 7.31498 29991 ft 442 kts 278°
2026-05-04 19:40 49.94024 7.26889 29987 ft 459 kts 288°
2026-05-04 19:40 49.95636 7.22441 29996 ft 474 kts 300°
2026-05-04 19:40 49.97823 7.18543 29987 ft 487 kts 315°
2026-05-04 19:41 50.00622 7.15509 29987 ft 493 kts 326°
2026-05-04 19:41 50.06727 7.10675 29997 ft 497 kts 333°
2026-05-04 19:41 50.09923 7.08595 29827 ft 500 kts 335°
2026-05-04 19:42 50.13141 7.06568 29365 ft 496 kts 334°
2026-05-04 19:42 50.16279 7.04408 28919 ft 492 kts 332°
2026-05-04 19:42 50.19382 7.02174 28486 ft 489 kts 332°
2026-05-04 19:42 50.22498 7.00038 28062 ft 489 kts 334°
2026-05-04 19:43 50.25631 6.97968 27645 ft 488 kts 333°
2026-05-04 19:43 50.28733 6.95857 27243 ft 485 kts 333°
2026-05-04 19:43 50.31811 6.93699 26854 ft 484 kts 332°
2026-05-04 19:43 50.34888 6.91566 26477 ft 483 kts 333°
2026-05-04 19:44 50.37311 6.89916 26183 ft 482 kts 333°
2026-05-04 19:44 50.41029 6.87374 25735 ft 480 kts 333°
2026-05-04 19:44 50.44070 6.85260 25366 ft 478 kts 333°
2026-05-04 19:44 50.47111 6.83144 25013 ft 477 kts 333°
2026-05-04 19:45 50.50147 6.81048 24671 ft 476 kts 333°
2026-05-04 19:45 50.53173 6.78963 24337 ft 474 kts 333°
2026-05-04 19:45 50.56188 6.76866 23927 ft 475 kts 333°
2026-05-04 19:45 50.59214 6.74750 23502 ft 476 kts 333°
2026-05-04 19:46 50.62249 6.72636 23020 ft 477 kts 333°
2026-05-04 19:46 50.65248 6.70552 22563 ft 477 kts 333°
2026-05-04 19:46 50.68281 6.68436 22106 ft 477 kts 333°
2026-05-04 19:46 50.71291 6.66325 21550 ft 469 kts 333°
2026-05-04 19:47 50.74240 6.64263 20916 ft 460 kts 334°
2026-05-04 19:47 50.77143 6.62228 20299 ft 453 kts 334°
2026-05-04 19:47 50.80004 6.60217 19695 ft 447 kts 334°
2026-05-04 19:47 50.82834 6.58227 19108 ft 443 kts 334°
2026-05-04 19:48 50.85634 6.56254 18542 ft 438 kts 334°
2026-05-04 19:48 50.88441 6.54422 17935 ft 435 kts 340°
2026-05-04 19:48 50.91358 6.53161 17299 ft 433 kts 346°
2026-05-04 19:48 50.94315 6.52314 16692 ft 431 kts 351°
2026-05-04 19:49 50.97272 6.51731 16103 ft 427 kts 353°
2026-05-04 19:49 51.00235 6.51249 15526 ft 427 kts 353°
2026-05-04 19:49 51.03190 6.50821 14974 ft 425 kts 355°
2026-05-04 19:49 51.05476 6.50610 14555 ft 413 kts 356°
2026-05-04 19:50 51.08612 6.50428 13957 ft 394 kts 358°
2026-05-04 19:50 51.11313 6.50394 13390 ft 380 kts 360°
2026-05-04 19:50 51.13924 6.50441 12815 ft 374 kts
2026-05-04 19:50 51.16502 6.50471 12334 ft 368 kts 360°
2026-05-04 19:51 51.19048 6.50487 11862 ft 362 kts
2026-05-04 19:51 51.21546 6.50499 11407 ft 356 kts 360°
2026-05-04 19:51 51.23963 6.50507 10867 ft 338 kts
2026-05-04 19:51 51.26255 6.50511 10287 ft 322 kts
2026-05-04 19:52 51.28446 6.50508 9704 ft 309 kts
2026-05-04 19:52 51.30610 6.50499 9084 ft 314 kts 360°
2026-05-04 19:52 51.32802 6.50490 8482 ft 316 kts 360°
2026-05-04 19:52 51.35003 6.50478 7894 ft 317 kts 360°
2026-05-04 19:53 51.37183 6.50472 7328 ft 316 kts 360°
2026-05-04 19:53 51.39346 6.50464 6774 ft 304 kts 360°
2026-05-04 19:53 51.41415 6.50459 6229 ft 291 kts 360°
2026-05-04 19:53 51.43423 6.50498 5651 ft 289 kts